sat.trackr.live / text

‹ back to catalog

STARLINK-11155 [DTC]

NORAD 60046 · 2024-112J

PAYLOAD ACTIVE UNKNOWN

§ Identity

Operator
Country
US
Launch date
2024-06-08
Launch site
AFWTR
Launch vehicle
Mass (kg)
RCS (m²)

Purposes: comms

External: N2YO · Heavens-Above · Gunter

§ Orbital elements

Epoch: 2026-09-21T14:33:02.858976Z

Period
91.74 min
Inclination
53.1599°
Eccentricity
0.0001014
Mean motion
15.69700308 rev/d
Perigee alt
359.1 km
Apogee alt
360.4 km
Semi-major
6,737.9 km
B*
-2.5641e-5
RAAN
20.3472°
Arg perigee
86.0941°
Mean anomaly
274.0193°
Rev number
13,175

§ Raw data

STARLINK-11155 [DTC]1 60046U 24112J   26264.60628309 -.00003692  00000+0 -25641-4 0  99932 60046  53.1599  20.3472 0001014  86.0941 274.0193 15.69700308131754

JSON: /api/v1/satellites/60046 · /tle

For live sub-satellite position, see the globe view (requires WebGL).

§ Visibility from observer

Set your observer location to see the next 7 days of passes ≥ 10°. The values pass through the URL so the page stays shareable.

No JS? Fill the form by hand. The geolocation button needs JavaScript.